Redmond, OR

6:53 AM PST on December 03, 2016 (GMT -0800)
Roberts Field Airport

Weather History for KRDM - January, 2014

Change the Weather History Date:

Thursday, January 30, 2014

  Actual Average Record
Temperature  
Mean Temperature 33 °F 34 °F  
Max Temperature 43 °F 44 °F 67 °F (1989)
Min Temperature 23 °F 24 °F -22 °F (1950)
Degree Days  
Heating Degree Days 32 31  
Month to date heating degree days 902 968  
Since 1 July heating degree days 3797 3808  
Cooling Degree Days 0 0  
Month to date cooling degree days 0 0  
Year to date cooling degree days 0 0  
Moisture  
Dew Point 23 °F    
Average Humidity 66    
Maximum Humidity 88    
Minimum Humidity 43    
Precipitation  
Precipitation 0.00 in 0.02 in 0.50 in (1963)
Month to date precipitation 0.52 0.94  
Year to date precipitation 0.52 0.94  
Sea Level Pressure  
Sea Level Pressure 29.92 in    
Wind  
Wind Speed 6 mph (West)    
Max Wind Speed 21 mph    
Max Gust Speed 25 mph    
Visibility 10 miles    
Events      
T = Trace of Precipitation, MM = Missing Value Source: NWS Daily Summary

Daily Weather History Graph

Daily Weather History Graph

Search for Another Location

Airport or City:

Trip Planner

Search our weather history database for the weather conditions in past years. The results will help you decide how hot, cold, wet, or windy it might be!

Date:

Astronomy

Jan. 30, 2014 Rise Set
Actual Time 7:24 AM PST 5:11 PM PST
Civil Twilight 6:53 AM PST 5:42 PM PST
Nautical Twilight 6:18 AM PST 6:17 PM PST
Astronomical Twilight 5:44 AM PST 6:51 PM PST
Moon 6:52 AM PST (1/30) 5:32 PM PST (1/30)
Length of Visible Light 10h 49m
Length of Day
9h 47m
Waning Crescent, 0% of the Moon is Illuminated
Jan 30
Waning Crescent
Jan 30
New
Feb 6
First Quarter
Feb 14
Full
Feb 22
Last Quarter

Hourly Weather History & Observations

Time (PST) Temp. Windchill Dew Point Humidity Pressure Visibility Wind Dir Wind Speed Gust Speed Precip Events Conditions
12:56 AM 35.1 °F 28.6 °F 26.1 °F 70% 29.89 in 10.0 mi NW 8.1 mph - N/A   Clear
1:56 AM 35.1 °F 28.6 °F 25.0 °F 67% 29.88 in 10.0 mi NW 8.1 mph - N/A   Clear
2:56 AM 30.0 °F - 25.0 °F 82% 29.89 in 10.0 mi Calm Calm - N/A   Clear
3:56 AM 28.0 °F 21.7 °F 24.1 °F 85% 29.90 in 10.0 mi WSW 5.8 mph - N/A   Clear
4:56 AM 26.1 °F - 21.9 °F 84% 29.91 in 10.0 mi Calm Calm - N/A   Clear
5:56 AM 25.0 °F - 21.9 °F 88% 29.91 in 10.0 mi Calm Calm - N/A   Clear
6:56 AM 25.0 °F 20.7 °F 21.9 °F 88% 29.91 in 10.0 mi WSW 3.5 mph - N/A   Clear
7:56 AM 24.1 °F - 21.0 °F 88% 29.93 in 10.0 mi Calm Calm - N/A   Clear
8:56 AM 32.0 °F 28.7 °F 26.1 °F 79% 29.93 in 10.0 mi East 3.5 mph - N/A   Clear
9:56 AM 37.0 °F 30.4 °F 25.0 °F 62% 29.92 in 10.0 mi WSW 9.2 mph - N/A   Clear
10:56 AM 37.9 °F 34.4 °F 23.0 °F 55% 29.94 in 10.0 mi WNW 4.6 mph - N/A   Clear
11:56 AM 39.9 °F 35.1 °F 21.9 °F 49% 29.91 in 10.0 mi West 6.9 mph - N/A   Clear
12:56 PM 42.1 °F 37.7 °F 23.0 °F 47% 29.88 in 10.0 mi WSW 6.9 mph - N/A   Clear
1:56 PM 43.0 °F 36.0 °F 21.0 °F 42% 29.87 in 10.0 mi West 13.8 mph - N/A   Clear
2:56 PM 42.1 °F 35.2 °F 23.0 °F 47% 29.88 in 10.0 mi WNW 12.7 mph - N/A   Clear
3:56 PM 41.0 °F 33.1 °F 23.0 °F 49% 29.90 in 10.0 mi WNW 15.0 mph - N/A   Clear
4:56 PM 37.0 °F 28.5 °F 23.0 °F 57% 29.91 in 10.0 mi NW 13.8 mph - N/A   Clear
5:56 PM 35.1 °F 24.1 °F 21.9 °F 59% 29.94 in 10.0 mi WNW 19.6 mph 24.2 mph N/A   Clear
6:56 PM 34.0 °F 25.5 °F 21.0 °F 59% 29.95 in 10.0 mi NW 11.5 mph - N/A   Clear
7:56 PM 32.0 °F 28.7 °F 21.9 °F 66% 29.97 in 10.0 mi SW 3.5 mph - N/A   Mostly Cloudy
8:56 PM 30.0 °F - 21.9 °F 72% 29.96 in 10.0 mi Calm Calm - N/A   Clear
9:56 PM 30.0 °F 25.2 °F 21.0 °F 69% 29.95 in 10.0 mi SSW 4.6 mph - N/A   Mostly Cloudy
10:56 PM 28.0 °F - 21.0 °F 75% 29.97 in 10.0 mi Calm Calm - N/A   Partly Cloudy
11:56 PM 27.0 °F - 21.0 °F 78% 29.96 in 10.0 mi Calm Calm - N/A   Scattered Clouds